Location: Pandora
(40.9481°N, 83.9611°W)
Time: 16:18:33
(UTC-04:00)

N. Korean satellite - Pass Details

Date: 24 September 2021
Orbit: 450 x 495 km, 97.3° (Epoch: 25 October)

Event Time Altitude Azimuth Distance (km) Brightness Sun altitude
Rises 06:17:07 0° 23° (NNE) 2,525 10.7 -13.7°
Reaches altitude 10° 06:19:22 10° 36° (NE) 1,651 9.9 -13.3°
Maximum altitude 06:22:29 28° 97° (E) 929 8.8 -12.7°
Drops below altitude 10° 06:25:36 10° 158° (SSE) 1,661 9.4 -12.1°
Sets 06:27:52 0° 170° (S) 2,543 10.2 -11.7°
